Weather History for KELP - October, 2012

Change the Weather History Date:

Wednesday, October 3, 2012

  Actual Average Record
Temperature  
Mean Temperature 76 °F 70 °F  
Max Temperature 93 °F 83 °F 94 °F (2000)
Min Temperature 58 °F 57 °F 43 °F (1961)
Degree Days  
Heating Degree Days 0 1  
Month to date heating degree days 0 2  
Since 1 July heating degree days 6 6  
Cooling Degree Days 11 5  
Month to date cooling degree days 29 17  
Year to date cooling degree days 2741 2263  
Growing Degree Days 25 (Base 50)    
Moisture  
Dew Point 31 °F    
Average Humidity 30    
Maximum Humidity 51    
Minimum Humidity 8    
Precipitation  
Precipitation 0.00 in 0.03 in 1.66 in (1883)
Month to date precipitation 0.00 0.08  
Year to date precipitation 5.83 7.91  
Snow  
Snow 0.00 in - - ()
Month to date snowfall 0.0  
Since 1 July snowfall 0.0  
Since 1 September snowfall 0.0  
Snow Depth 0.00 in    
Sea Level Pressure  
Sea Level Pressure 29.80 in    
Wind  
Wind Speed 9 mph (WSW)    
Max Wind Speed 25 mph    
Max Gust Speed 32 mph    
Visibility 10 miles    
Events      
T = Trace of Precipitation, MM = Missing Value Source: NWS Daily Summary

Daily Weather History Graph

Daily Weather History Graph

Search for Another Location

Airport or City:

Trip Planner

Search our weather history database for the weather conditions in past years. The results will help you decide how hot, cold, wet, or windy it might be!

Date:

Astronomy

Oct. 03, 2012 Rise Set
Actual Time 7:01 AM MDT 6:47 PM MDT
Civil Twilight 6:36 AM MDT 7:11 PM MDT
Nautical Twilight 6:08 AM MDT 7:39 PM MDT
Astronomical Twilight 5:40 AM MDT 8:08 PM MDT
Moon 8:56 PM MDT (10/3) 10:12 AM MDT (10/3)
Length of Visible Light 12h 34m
Length of Day
11h 46m
Waning Gibbous, 88% of the Moon is Illuminated
Oct 3
Waning Gibbous
Oct 8
Last Quarter
Oct 15
New
Oct 21
First Quarter
Oct 29
Full

Hourly Weather History & Observations

Time (MDT) Temp. Dew Point Humidity Pressure Visibility Wind Dir Wind Speed Gust Speed Precip Events Conditions
12:51 AM 72.0 °F 36.0 °F 27% 29.75 in 10.0 mi SSE 11.5 mph - N/A   Clear
1:51 AM 73.9 °F 30.9 °F 21% 29.74 in 10.0 mi South 9.2 mph - N/A   Clear
2:51 AM 73.9 °F 30.9 °F 21% 29.73 in 10.0 mi Variable 5.8 mph - N/A   Clear
3:51 AM 66.9 °F 36.0 °F 32% 29.75 in 10.0 mi ENE 6.9 mph - N/A   Clear
4:51 AM 63.0 °F 39.0 °F 41% 29.77 in 10.0 mi South 5.8 mph - N/A   Clear
5:51 AM 61.0 °F 39.9 °F 46% 29.79 in 10.0 mi Variable 4.6 mph - N/A   Clear
6:51 AM 59.0 °F 41.0 °F 51% 29.82 in 10.0 mi East 5.8 mph - N/A   Partly Cloudy
7:51 AM 62.1 °F 39.9 °F 44% 29.84 in 10.0 mi Calm Calm - N/A   Partly Cloudy
8:51 AM 68.0 °F 39.9 °F 36% 29.85 in 10.0 mi Calm Calm - N/A   Partly Cloudy
9:51 AM 75.9 °F 36.0 °F 23% 29.85 in 10.0 mi NE 3.5 mph - N/A   Partly Cloudy
10:51 AM 82.0 °F 32.0 °F 16% 29.84 in 10.0 mi Calm Calm - N/A   Partly Cloudy
11:51 AM 84.9 °F 30.0 °F 14% 29.84 in 10.0 mi West 6.9 mph - N/A   Partly Cloudy
12:51 PM 88.0 °F 30.0 °F 12% 29.81 in 10.0 mi West 12.7 mph - N/A   Scattered Clouds
1:51 PM 90.0 °F 30.0 °F 12% 29.78 in 10.0 mi WSW 9.2 mph - N/A   Scattered Clouds
2:51 PM 91.9 °F 26.1 °F 9% 29.75 in 10.0 mi NW 18.4 mph 23.0 mph N/A   Scattered Clouds
3:51 PM 93.0 °F 25.0 °F 9% 29.75 in 10.0 mi WSW 17.3 mph 24.2 mph N/A   Partly Cloudy
4:51 PM 91.9 °F 25.0 °F 9% 29.77 in 10.0 mi West 15.0 mph 23.0 mph N/A   Partly Cloudy
5:51 PM 90.0 °F 25.0 °F 10% 29.78 in 10.0 mi West 12.7 mph 29.9 mph N/A   Clear
6:51 PM 88.0 °F 24.1 °F 10% 29.81 in 10.0 mi West 20.7 mph 27.6 mph N/A   Clear
7:51 PM 86.0 °F 25.0 °F 11% 29.83 in 10.0 mi West 12.7 mph 26.5 mph N/A   Clear
8:51 PM 86.0 °F 24.8 °F 11% 30.03 in 10.0 mi WNW 15.0 mph 24.2 mph N/A   Clear
9:51 PM 84.9 °F 26.1 °F 12% 29.81 in 10.0 mi West 19.6 mph 25.3 mph N/A   Clear
10:51 PM 82.9 °F 27.0 °F 13% 29.83 in 10.0 mi Variable 4.6 mph - N/A   Clear
11:51 PM 77.0 °F 30.0 °F 18% 29.86 in 10.0 mi South 6.9 mph - N/A   Clear